Date,TemperatureHighF,TemperatureAvgF,TemperatureLowF,DewpointHighF,DewpointAvgF,DewpointLowF,HumidityHigh,HumidityAvg,HumidityLow,PressureMaxIn,PressureMinIn,WindSpeedMaxMPH,WindSpeedAvgMPH,GustSpeedMaxMPH,PrecipitationSumIn
2013-1-1,58,51,46,49,45,42,88,80,67,30.12,30.04,10,1,16,9.10
2013-1-2,60,50,43,51,44,39,88,81,66,30.29,30.11,9,1,9,0.00
2013-1-3,60,51,45,50,44,41,88,79,65,30.38,30.28,11,1,11,0.00
2013-1-4,61,51,44,45,39,34,79,65,39,30.30,30.02,10,0,10,0.00
2013-1-5,57,51,46,39,37,34,73,59,45,30.02,29.75,13,1,13,0.00
2013-1-6,51,46,42,38,36,31,75,67,59,29.87,29.68,20,3,20,0.00
2013-1-7,52,45,39,32,29,23,66,54,41,29.98,29.82,22,4,22,0.00
2013-1-8,44,37,34,33,28,21,84,72,40,30.17,29.96,22,3,22,0.12
2013-1-9,48,40,34,30,28,24,72,61,48,30.22,30.14,21,1,21,0.00
2013-1-10,53,44,35,37,31,27,73,62,44,30.17,29.99,11,1,11,0.00
2013-1-11,62,53,45,54,46,37,89,78,63,30.00,29.79,10,1,10,0.10
2013-1-12,62,51,43,51,43,39,87,75,58,30.01,29.79,13,1,13,0.00
2013-1-13,60,49,42,46,41,37,85,73,52,30.20,30.01,12,2,12,0.00
2013-1-14,55,49,47,47,44,41,83,80,75,30.27,30.19,7,2,7,0.00
2013-1-16,57,54,51,53,48,43,88,79,68,29.88,29.63,21,4,21,1.20
2013-1-17,59,52,45,50,44,40,83,76,64,29.76,29.65,19,3,19,0.02
2013-1-18,58,52,46,50,45,39,83,76,67,29.52,29.44,28,4,28,0.16
2013-1-19,57,50,43,42,39,37,82,67,51,29.83,29.50,24,2,24,0.00
2013-1-20,66,55,48,52,47,40,82,73,56,29.93,29.82,13,1,13,0.02
2013-1-21,66,58,50,53,49,45,87,73,49,29.90,29.62,24,3,24,0.02
2013-1-22,64,56,49,52,48,45,86,74,54,29.78,29.64,16,2,16,0.02
2013-1-23,62,56,51,46,43,40,73,62,47,29.93,29.77,17,1,17,0.00
2013-1-24,62,54,47,53,47,42,85,77,65,29.93,29.56,29,4,29,0.50
2013-1-25,58,50,43,49,44,39,87,82,66,29.64,29.47,32,4,32,0.59
2013-1-26,58,50,47,50,45,42,86,82,67,29.62,29.42,13,1,13,0.39
2013-1-27,55,48,45,46,42,40,88,80,64,29.91,29.62,15,1,15,0.17
2013-1-28,57,50,45,45,41,37,82,73,61,29.98,29.88,17,1,17,0.17
2013-1-29,50,46,42,43,40,37,84,79,71,30.09,29.97,13,1,13,0.17
2013-1-30,59,49,40,43,35,28,84,62,33,30.07,29.92,12,1,12,3.14
2013-1-31,63,52,43,46,39,32,75,60,47,29.99,29.81,22,2,22,0.02
2013-2-1,60,52,44,40,35,30,72,53,39,30.04,29.87,16,2,16,0.02
2013-2-2,65,54,44,51,45,38,84,73,56,29.88,29.75,17,2,17,0.00
2013-2-3,65,60,57,54,53,51,85,77,62,29.90,29.75,38,9,38,0.02
2013-2-4,68,60,55,56,52,49,86,76,59,29.96,29.88,16,1,16,0.02
2013-2-5,63,57,51,52,49,44,86,74,59,29.97,29.81,19,1,19,0.02
2013-2-6,64,55,46,52,46,41,84,74,59,29.83,29.65,13,2,13,0.00
2013-2-7,61,55,51,51,48,43,85,76,65,29.69,29.49,35,6,35,0.37
2013-2-8,58,52,47,47,42,40,82,70,57,29.72,29.51,14,2,14,0.00
2013-2-9,60,51,42,46,40,37,84,68,49,29.84,29.72,19,2,19,0.00
2013-2-10,60,52,45,43,39,36,76,62,46,29.87,29.76,15,1,15,0.00
2013-2-11,57,49,44,38,35,32,77,61,46,30.03,29.74,19,2,19,0.00
2013-2-12,61,51,40,46,40,32,77,67,46,30.06,29.96,17,2,17,0.00
2013-2-13,56,52,47,49,45,42,89,78,66,29.97,29.86,31,2,31,1.24
2013-2-14,52,49,47,48,45,43,87,86,81,29.88,29.65,15,1,15,0.33
2013-2-15,52,48,46,46,43,41,88,83,73,30.00,29.65,22,2,22,0.26
2013-2-16,57,50,44,46,43,40,85,79,68,30.04,29.97,14,2,14,0.06
2013-2-17,48,46,42,43,41,37,87,84,78,30.04,29.92,25,3,25,0.39
2013-2-18,54,47,40,42,39,36,86,74,56,30.07,30.02,12,1,12,0.00
2013-2-19,56,50,44,50,44,38,88,81,73,30.03,29.75,14,1,14,0.21
2013-2-20,61,52,45,42,39,37,79,63,42,30.03,29.79,18,1,18,0.00
2013-2-21,54,50,46,48,43,38,84,76,72,30.03,29.70,15,1,15,0.02
2013-2-22,56,52,50,51,48,46,90,85,80,29.70,29.54,24,2,24,2.14
2013-2-23,65,54,46,56,48,43,90,79,57,30.00,29.70,13,1,13,2.10
2013-2-24,68,57,48,56,48,44,89,73,52,30.07,29.99,20,2,20,2.10
2013-2-25,68,60,53,55,52,48,86,73,58,30.06,29.96,17,3,17,2.10
2013-2-26,67,60,53,54,48,41,82,65,42,30.03,29.94,17,2,17,2.10
2013-2-27,62,54,50,45,41,37,75,61,41,30.04,29.92,20,2,20,2.10
2013-2-28,53,49,47,41,40,38,76,69,62,30.19,30.03,20,3,20,2.10
2013-3-1,62,50,40,41,38,34,79,64,46,30.16,29.98,14,1,14,2.10
2013-3-2,62,51,42,47,42,36,82,70,57,29.99,29.84,15,2,15,2.10
2013-3-3,55,51,46,46,42,37,86,72,58,29.93,29.74,29,7,29,2.10
2013-3-4,63,51,42,44,40,37,82,67,43,30.15,29.93,10,1,10,2.10
2013-3-5,56,49,44,43,38,34,76,65,53,30.38,30.14,17,3,17,2.10
2013-3-6,61,51,44,40,37,34,69,58,44,30.37,30.12,15,2,15,0.00
2013-3-7,57,53,50,51,46,40,84,77,66,30.13,29.90,9,0,9,2.10
2013-3-8,66,56,50,54,49,46,88,79,59,29.90,29.83,11,1,11,2.10
2013-3-9,70,60,51,55,50,47,90,73,54,29.85,29.70,20,2,20,2.10
2013-3-10,70,60,52,51,48,45,83,67,42,29.80,29.70,14,2,14,2.10
2013-3-11,72,62,52,56,51,46,85,69,55,29.71,29.55,16,2,20,2.10
2013-3-12,70,62,56,46,44,40,66,52,35,29.70,29.56,22,2,22,2.10
2013-3-13,68,59,50,53,46,42,79,62,42,29.74,29.66,19,3,21,2.10
2013-3-14,71,63,58,54,48,40,81,61,36,29.70,29.28,27,6,27,2.10
2013-3-15,62,57,50,45,41,38,64,56,47,29.59,29.36,23,5,23,2.10
2013-3-16,55,50,45,42,37,35,70,62,49,29.98,29.58,14,2,14,2.10
2013-3-17,58,48,42,37,35,31,76,61,38,30.16,29.96,13,1,13,2.10
2013-3-18,58,50,43,47,40,34,79,69,52,30.17,29.93,16,3,16,0.00
2013-3-19,66,59,53,52,50,46,81,72,61,29.93,29.76,24,4,24,0.00
2013-3-20,70,60,49,55,49,44,86,68,49,29.90,29.80,12,1,13,2.10
2013-3-21,68,62,57,55,52,43,81,71,54,29.80,29.52,27,2,27,2.10
2013-3-22,65,58,52,43,38,32,64,48,35,29.75,29.53,24,5,24,2.10
2013-3-23,67,56,46,40,29,20,62,37,19,29.96,29.75,16,2,16,2.10
2013-3-24,68,57,46,51,45,38,77,64,50,30.00,29.91,21,3,21,2.10
2013-3-25,67,60,53,54,50,47,82,70,56,29.93,29.59,24,3,24,2.10
2013-3-26,68,61,55,53,48,44,82,64,48,29.64,29.51,23,3,23,0.00
2013-3-27,68,61,53,52,48,43,74,63,50,29.82,29.63,25,2,25,0.00
2013-3-28,69,59,54,54,49,45,81,70,58,30.04,29.82,12,1,12,0.10
2013-3-29,70,60,52,54,51,48,86,73,54,30.04,29.97,13,1,13,0.00
2013-3-30,75,64,55,54,51,50,83,65,42,29.98,29.81,22,1,22,0.00
2013-3-31,72,64,57,58,53,49,78,69,57,29.85,29.72,21,2,21,0.00
2013-4-1,72,64,53,54,45,38,82,54,29,29.86,29.75,22,2,22,0.00
2013-4-2,73,64,54,52,47,43,69,55,36,29.86,29.56,24,2,24,0.00
2013-4-3,71,64,59,55,48,42,80,57,37,29.65,29.45,23,3,25,0.00
2013-4-4,73,63,55,47,44,41,65,50,34,29.90,29.65,25,3,25,0.00
2013-4-5,73,63,54,52,45,39,71,54,30,29.93,29.78,26,3,26,0.00
2013-4-6,76,65,54,54,50,46,75,60,43,29.79,29.69,9,1,9,0.00
2013-4-7,70,64,60,57,52,46,76,64,54,29.70,29.28,25,4,25,0.02
2013-4-8,62,59,56,50,48,46,77,67,59,29.87,29.39,15,2,20,0.06
2013-4-9,70,60,51,50,46,43,81,62,40,29.98,29.86,24,2,24,0.00
2013-4-10,73,61,50,50,47,43,79,61,39,29.98,29.88,22,2,22,0.00
2013-4-11,77,63,51,52,47,43,77,58,31,30.01,29.90,18,1,18,0.00
2013-4-12,75,63,52,50,46,42,75,56,35,30.06,29.97,17,2,17,0.00
2013-4-13,78,65,53,51,47,43,71,53,36,30.09,30.03,18,2,18,0.00
2013-4-14,77,65,58,53,49,45,75,57,34,30.07,30.01,26,2,26,0.00
2013-4-15,63,59,56,47,44,39,67,57,43,30.08,29.98,25,5,25,0.00
2013-4-16,64,57,52,46,43,38,78,60,41,30.06,29.99,24,5,24,0.04
2013-4-17,66,59,54,41,38,28,60,47,24,30.08,30.01,27,7,27,0.00
2013-4-18,61,58,55,33,31,29,43,37,30,30.02,29.99,20,5,20,0.00
2013-4-19,62,56,50,46,38,33,72,51,41,30.01,29.92,24,3,24,0.02
2013-4-20,65,57,50,46,40,37,68,53,39,30.02,29.92,21,3,21,0.00
2013-4-21,71,61,50,46,41,38,64,49,31,30.03,29.93,25,2,25,0.00
2013-4-22,74,63,53,45,42,40,62,48,33,30.06,29.97,15,2,15,0.00
2013-4-23,74,64,56,50,46,40,65,51,40,30.21,30.06,16,2,16,0.00
2013-4-24,78,68,56,52,43,35,68,44,21,30.29,30.20,17,2,17,0.00
2013-4-25,81,71,60,50,46,42,53,42,30,30.27,30.14,20,2,20,0.00
2013-4-26,84,72,58,48,43,37,56,38,21,30.16,29.98,15,1,15,0.00
2013-4-27,83,71,58,46,44,41,56,39,26,30.00,29.89,22,2,22,0.00
2013-4-28,83,70,57,54,45,40,61,42,24,30.03,29.93,17,2,17,0.00
2013-4-29,87,72,59,52,45,40,54,39,23,30.10,30.02,17,1,17,0.00
2013-4-30,86,76,64,51,45,40,48,34,26,30.09,30.00,23,2,23,0.00
2013-5-1,86,76,65,53,48,41,56,38,26,30.04,29.93,25,2,25,0.00
2013-5-2,86,77,70,49,43,38,43,31,21,29.94,29.88,27,4,27,0.00
2013-5-3,88,76,65,58,50,42,53,41,29,29.91,29.80,19,2,19,0.00
2013-5-4,89,76,64,58,54,51,65,49,33,29.94,29.82,14,1,14,0.00
2013-5-5,90,78,66,56,53,50,60,44,29,30.03,29.91,14,2,14,0.00
2013-5-6,85,77,70,57,53,50,59,45,32,30.05,29.96,26,3,26,0.00
2013-5-7,83,75,69,54,52,49,55,44,35,29.98,29.84,24,3,24,0.00
2013-5-8,77,69,64,59,55,49,74,60,48,29.90,29.79,22,2,22,0.00
2013-5-9,76,67,62,58,55,53,75,66,52,29.88,29.80,28,4,28,0.00
2013-5-10,74,67,62,57,54,51,78,64,49,29.88,29.80,18,1,18,0.02
2013-5-11,82,71,61,58,54,51,72,56,41,29.86,29.73,20,2,20,0.00
2013-5-12,83,73,67,58,55,52,69,55,35,29.74,29.63,23,2,23,0.00
2013-5-13,76,66,60,60,53,49,84,63,41,29.68,29.62,17,2,17,0.23
2013-5-14,73,65,60,58,53,50,88,66,49,29.83,29.65,17,1,17,0.32
2013-5-15,80,69,56,57,52,49,78,57,39,29.87,29.81,17,2,17,0.00
2013-5-16,81,69,60,58,54,48,77,60,36,29.89,29.82,22,1,22,0.00
2013-5-17,81,71,64,62,57,53,77,61,42,29.92,29.80,14,1,14,0.02
2013-5-18,90,76,63,63,59,56,77,58,36,29.98,29.88,15,1,15,0.00
2013-5-19,92,79,68,62,58,56,69,50,30,29.96,29.87,17,1,17,0.00
2013-5-20,93,80,69,62,59,56,66,50,34,29.91,29.84,14,1,14,0.00
2013-5-21,93,84,69,60,56,51,62,40,26,29.91,29.84,18,2,18,0.00
2013-5-22,87,81,69,59,56,46,63,43,25,29.83,29.71,20,2,20,0.00
2013-5-23,87,78,72,61,54,47,61,44,31,29.72,29.57,26,5,26,0.00
2013-5-24,81,76,66,55,51,48,58,43,37,29.90,29.74,25,5,25,0.00
2013-5-25,83,73,65,55,50,47,55,45,30,29.93,29.86,28,4,28,0.00
2013-5-26,85,75,64,53,50,46,61,43,27,29.93,29.82,21,3,21,0.00
2013-5-27,82,73,64,50,44,37,50,36,21,29.94,29.88,19,2,19,0.00
2013-5-28,81,71,60,58,52,47,66,51,36,29.93,29.75,14,1,14,0.00
2013-5-29,88,77,70,62,54,42,59,44,34,29.75,29.55,20,2,20,0.00
2013-5-30,89,78,69,61,55,47,66,47,27,29.72,29.63,22,3,22,0.00
2013-5-31,83,73,68,56,48,41,57,43,27,29.78,29.64,24,3,24,0.00
2013-6-1,78,69,60,57,48,40,70,48,31,29.84,29.76,21,2,21,0.00
2013-6-2,81,71,62,57,52,44,76,54,33,29.81,29.64,26,3,26,0.04
2013-6-3,83,73,62,54,51,47,65,48,30,29.86,29.80,22,2,22,0.00
2013-6-4,84,74,65,57,53,48,66,49,30,29.87,29.79,27,4,27,0.00
2013-6-5,83,75,66,57,52,46,62,47,29,29.93,29.85,23,2,23,0.00
2013-6-6,83,74,64,61,56,52,68,56,37,30.00,29.91,18,2,18,0.00
2013-6-7,82,74,68,60,55,50,68,51,33,29.98,29.81,14,1,14,0.00
2013-6-8,83,73,68,64,58,55,75,61,40,29.85,29.77,21,2,21,0.06
2013-6-9,86,74,63,61,58,55,77,58,39,29.93,29.83,17,2,18,0.00
2013-6-10,88,77,66,61,58,56,71,53,38,29.93,29.80,19,2,19,0.00
2013-6-11,90,79,70,63,58,52,75,51,29,29.82,29.60,22,2,22,0.05
2013-6-12,86,73,65,63,56,51,80,57,33,29.76,29.63,18,1,18,0.28
2013-6-13,76,69,64,61,58,56,84,69,52,29.82,29.72,17,1,17,0.02
2013-6-14,80,72,65,64,59,56,77,64,47,29.91,29.80,14,1,14,0.02
2013-6-15,87,76,65,63,59,55,77,57,35,29.92,29.86,16,1,16,0.00
2013-6-16,93,79,66,66,60,50,71,54,24,29.95,29.89,24,2,24,0.00
2013-6-17,93,82,70,63,59,55,68,47,31,29.96,29.91,19,3,19,0.00
2013-6-18,90,86,82,61,58,55,49,39,32,29.96,29.90,27,8,27,0.00
2013-6-19,91,85,77,59,57,54,50,39,32,29.93,29.84,26,5,26,0.00
2013-6-20,92,85,79,59,56,53,48,38,31,29.94,29.82,28,8,28,0.00
2013-6-21,88,81,76,59,57,53,50,43,35,29.94,29.88,24,5,24,0.00
2013-6-22,93,83,71,57,52,44,57,36,21,29.91,29.82,28,3,28,0.00
2013-6-23,97,85,72,63,57,51,52,40,30,29.85,29.77,22,2,22,0.00
2013-6-24,98,85,74,62,58,53,58,41,26,29.80,29.74,18,2,20,0.00
2013-6-25,97,86,74,61,58,54,56,40,26,29.78,29.73,22,2,22,0.00
2013-6-26,96,83,72,66,60,56,58,47,32,29.87,29.76,16,2,16,0.00
2013-6-27,93,82,74,64,62,58,65,52,34,29.89,29.83,23,1,23,0.00
2013-6-28,91,80,72,67,62,59,69,56,36,29.91,29.85,17,2,17,0.00
2013-6-29,91,80,70,64,59,48,72,51,32,29.90,29.73,20,3,20,0.00
2013-6-30,88,78,70,58,53,48,56,43,29,29.85,29.73,20,2,20,0.00
2013-7-1,87,78,70,61,54,48,59,46,27,29.99,29.85,25,2,25,0.00
2013-7-2,90,78,68,61,56,50,68,48,28,30.00,29.92,17,2,17,0.00
2013-7-3,88,79,70,59,53,50,56,42,33,29.95,29.85,19,3,19,0.00
2013-7-4,87,79,68,58,53,49,56,42,33,29.91,29.83,20,2,20,0.00
2013-7-5,86,79,69,61,54,48,57,44,33,29.90,29.83,26,4,26,0.00
2013-7-6,85,80,72,63,58,54,63,49,39,29.88,29.79,26,4,26,0.00
2013-7-7,82,79,76,61,59,57,58,51,42,29.93,29.81,23,5,26,0.00
2013-7-8,91,84,76,59,56,53,51,39,28,29.96,29.91,26,5,26,0.00
2013-7-9,91,84,78,62,57,53,48,40,32,29.96,29.81,26,5,26,0.00
2013-7-10,90,83,75,62,59,52,59,45,34,29.84,29.72,25,3,25,0.00
2013-7-11,92,83,73,62,57,52,57,43,30,29.82,29.74,21,2,21,0.00
2013-7-12,94,84,73,63,59,54,62,45,31,29.89,29.81,16,2,16,0.00
2013-7-13,91,83,75,63,60,55,60,46,36,29.90,29.84,21,3,21,0.00
2013-7-14,91,82,74,61,58,55,60,44,31,29.91,29.82,25,3,25,0.00
2013-7-15,91,82,73,59,56,53,54,42,32,29.89,29.82,25,2,25,0.00
2013-7-16,88,81,73,59,56,52,55,43,35,29.91,29.84,24,3,24,0.00
2013-7-17,81,77,74,60,57,53,59,50,42,29.96,29.91,26,6,26,0.00
2013-7-18,84,79,74,58,55,50,56,44,31,29.99,29.92,26,8,26,0.00
2013-7-19,86,80,74,55,53,48,50,40,31,29.98,29.89,26,6,26,0.00
2013-7-20,89,80,70,58,53,48,59,41,28,29.90,29.79,26,4,26,0.00
2013-7-21,91,82,70,58,55,50,57,40,28,29.86,29.80,26,4,26,0.00
2013-7-22,84,79,75,62,58,53,63,50,37,29.88,29.82,28,5,28,0.00
2013-7-23,86,79,70,60,52,43,62,42,23,29.87,29.81,27,4,27,0.00
2013-7-24,93,82,70,53,50,47,49,34,22,29.90,29.84,25,3,25,0.00
2013-7-25,98,84,71,59,53,46,50,35,18,29.92,29.84,22,2,22,0.00
2013-7-26,97,86,73,59,54,50,47,34,23,29.88,29.80,20,2,20,0.00
2013-7-27,92,84,76,60,55,52,48,37,29,29.91,29.82,24,3,24,0.00
2013-7-28,92,84,77,60,56,52,52,39,31,29.98,29.90,26,3,26,0.00
2013-7-29,94,86,77,57,54,51,50,36,24,29.99,29.90,25,3,25,0.00
2013-7-30,100,88,76,64,58,53,51,38,27,29.91,29.74,20,2,20,0.00
2013-7-31,95,87,79,66,61,56,49,43,34,29.79,29.70,26,4,26,0.00
2013-8-1,88,83,78,66,61,56,64,48,37,29.92,29.78,25,6,27,0.00
2013-8-2,88,82,77,61,58,53,55,44,34,29.94,29.90,28,6,28,0.00
2013-8-3,90,84,77,60,56,52,53,40,29,29.93,29.89,28,5,28,0.00
2013-8-4,94,86,77,60,56,48,49,37,23,29.93,29.87,26,4,26,0.00
2013-8-5,87,82,78,61,54,47,51,38,26,29.95,29.89,28,8,28,0.00
2013-8-6,87,82,78,56,53,47,44,37,27,29.92,29.85,27,8,27,0.00
2013-8-7,89,82,78,56,54,50,46,38,28,29.92,29.85,29,6,29,0.00
2013-8-8,92,84,79,60,53,48,45,35,24,29.94,29.87,27,6,27,0.00
2013-8-9,82,79,76,58,56,54,52,46,40,29.92,29.86,14,1,14,0.00
2013-8-28,99,91,85,64,61,57,44,37,25,29.83,29.78,22,4,22,0.00
2013-8-29,97,86,76,67,61,56,60,45,27,29.88,29.82,21,1,21,0.00
2013-8-30,94,84,77,64,60,54,62,46,29,29.92,29.82,20,1,20,0.00
2013-8-31,86,79,74,64,58,53,62,49,35,29.97,29.88,22,3,22,0.00
2013-9-1,87,78,72,60,53,45,64,43,31,30.04,29.96,19,3,19,0.00
2013-9-2,89,78,70,59,51,42,57,39,26,30.06,29.97,21,2,21,0.00
2013-9-3,91,79,69,65,59,56,66,52,36,30.06,29.94,17,2,17,0.00
2013-9-4,84,78,71,60,57,53,61,49,36,30.09,29.97,24,5,24,0.00
2013-9-5,86,75,65,55,52,48,63,46,31,30.09,29.94,23,2,23,0.00
2013-9-6,88,77,67,64,58,52,63,53,40,29.96,29.86,23,2,23,0.00
2013-9-7,84,76,70,66,61,57,70,59,45,30.00,29.90,9,1,9,0.00
2013-9-8,87,76,67,60,55,48,70,50,35,30.09,29.98,19,2,19,0.00
2013-9-9,84,76,68,54,51,47,58,43,33,30.12,30.05,16,2,17,0.00
2013-9-10,89,77,67,63,56,47,60,49,36,30.08,29.98,19,1,19,0.00
2013-9-11,91,80,69,66,61,54,64,53,39,30.01,29.91,15,1,15,0.00
2013-9-12,94,82,70,66,62,58,69,53,30,29.94,29.89,17,2,17,0.00
2013-9-13,93,82,74,66,63,59,70,53,34,29.93,29.87,25,2,25,0.00
2013-9-14,88,78,72,61,55,43,59,46,21,30.00,29.91,19,1,19,0.00
2013-9-15,87,76,67,57,51,38,63,45,20,29.98,29.86,17,2,17,0.00
2013-9-16,83,75,67,64,58,54,72,56,39,29.88,29.62,23,2,23,0.00
2013-9-17,85,76,66,62,58,55,70,56,39,29.70,29.62,23,3,23,0.00
2013-9-18,87,78,71,63,56,48,69,49,28,29.66,29.59,26,3,26,0.00
2013-9-19,87,76,66,62,57,54,67,53,35,29.74,29.64,20,2,20,0.00
2013-9-20,86,76,68,64,59,55,72,57,36,29.92,29.72,18,1,18,0.08
2013-9-21,80,72,68,62,59,56,77,64,48,30.01,29.91,17,3,17,0.00
2013-9-22,76,70,65,57,53,50,65,56,43,30.05,29.99,24,3,24,0.00
2013-9-23,76,69,62,54,50,46,68,51,38,30.02,29.89,24,3,24,0.00
2013-9-24,83,70,60,59,52,46,70,54,34,29.93,29.86,20,2,20,0.00
2013-9-25,84,73,62,63,58,53,74,61,37,29.99,29.92,19,2,19,0.00
2013-9-26,85,74,65,64,60,55,82,63,38,29.99,29.85,17,2,17,0.00
2013-9-27,87,75,64,62,58,52,75,57,32,29.90,29.82,14,2,14,0.00
2013-9-28,86,74,64,63,59,54,74,60,34,29.91,29.85,9,2,14,0.00
2013-9-29,86,75,65,64,60,57,76,62,44,29.91,29.83,14,2,14,0.00
2013-9-30,86,76,67,67,62,56,79,63,45,29.86,29.62,20,2,20,0.02
2013-10-1,81,73,66,68,62,55,88,69,45,29.64,29.50,24,3,24,0.70
2013-10-2,74,68,62,59,56,53,73,65,51,29.91,29.59,24,3,24,0.00
2013-10-3,64,60,58,53,49,45,80,68,57,30.22,29.91,21,5,21,0.08
2013-10-4,60,57,55,46,44,42,72,63,57,30.31,30.21,16,5,18,0.00
2013-10-5,63,57,53,44,43,41,67,59,49,30.32,30.22,21,4,21,0.00
2013-10-6,66,58,52,46,44,42,73,62,48,30.29,30.22,15,2,15,0.00
2013-10-7,68,60,54,48,47,44,72,61,46,30.31,30.24,22,4,22,0.00
2013-10-8,74,65,58,53,49,45,64,57,42,30.30,30.21,14,2,14,0.00
2013-10-9,78,66,57,54,50,47,73,58,35,30.24,30.11,14,1,14,0.00
2013-10-10,70,64,59,62,57,52,83,77,69,30.12,30.02,12,1,12,0.00
2013-10-11,83,70,60,63,59,55,86,71,44,30.16,30.06,11,1,11,0.00
2013-10-12,85,72,62,66,62,58,85,72,48,30.18,30.10,11,1,11,0.00
2013-10-13,82,72,64,64,60,54,84,66,48,30.14,30.06,15,2,15,0.00
2013-10-14,81,72,66,58,55,52,74,56,40,30.12,30.03,18,3,18,0.00
2013-10-15,80,70,62,63,58,51,79,65,52,30.11,29.93,16,2,16,0.00
2013-10-16,70,67,65,64,61,59,83,80,76,29.93,29.54,18,1,18,0.22
2013-10-17,71,65,61,63,52,43,84,63,41,29.71,29.47,24,3,24,0.06
2013-10-18,76,67,61,53,49,45,64,52,38,29.99,29.70,22,4,22,0.00
2013-10-19,74,67,60,50,44,41,65,45,33,30.30,29.99,20,3,20,0.00
2013-10-20,72,63,58,52,47,43,72,56,41,30.37,30.29,20,3,20,0.00
2013-10-21,76,63,53,52,47,41,67,56,37,30.30,30.15,12,2,12,0.00
2013-10-22,78,64,55,57,52,48,82,67,45,30.17,30.08,11,2,11,0.00
2013-10-23,77,66,56,55,50,45,71,59,46,30.17,30.11,24,3,24,0.00
2013-10-24,74,67,61,54,50,44,69,54,43,30.18,30.11,25,2,25,0.00
2013-10-25,77,64,54,51,46,40,69,53,33,30.14,30.07,6,1,10,0.00
2013-10-26,77,63,51,45,40,36,58,45,28,30.16,30.09,10,1,10,0.00
2013-10-27,80,63,52,53,42,34,67,48,28,30.14,30.05,9,1,9,0.00
2013-10-28,78,63,52,56,50,45,77,65,38,30.08,30.02,9,2,9,0.00
2013-10-29,79,64,52,57,51,46,80,66,38,30.04,29.95,10,2,10,0.00
2013-10-30,79,65,56,58,53,48,80,64,46,30.05,29.98,14,2,14,0.00
2013-10-31,76,65,57,55,50,46,75,59,45,30.14,30.03,21,2,21,0.00
2013-11-1,74,64,58,53,50,46,70,59,45,30.16,30.09,15,2,15,0.00
2013-11-2,73,61,53,54,50,46,78,67,49,30.14,30.04,12,1,12,0.00
2013-11-3,74,63,54,60,55,48,85,75,57,30.08,30.00,12,2,12,0.00
2013-11-4,76,65,57,63,57,53,87,76,55,30.03,29.91,12,1,12,0.00
2013-11-5,74,67,61,61,58,56,86,75,56,29.91,29.70,27,5,27,0.00
2013-11-6,69,62,59,58,56,54,88,80,59,29.70,29.55,31,3,31,1.08
2013-11-7,68,62,56,58,52,40,88,71,48,30.09,29.65,25,3,25,0.02
2013-11-8,72,61,53,52,47,41,73,60,43,30.14,30.07,11,1,11,0.00
2013-11-9,75,62,54,55,51,46,80,69,47,30.09,29.99,8,1,8,0.00
2013-11-10,72,60,52,60,54,48,86,80,62,29.99,29.83,11,1,11,0.00
2013-11-11,70,64,59,64,58,55,88,82,70,29.96,29.80,24,2,24,0.90
2013-11-12,70,65,61,64,61,57,90,86,76,30.05,29.94,18,2,18,0.08
2013-11-13,69,62,60,58,55,53,87,78,65,30.05,29.93,21,4,21,0.04
2013-11-14,62,59,57,56,54,52,88,82,76,29.95,29.84,23,4,23,0.60
2013-11-15,63,58,55,54,51,50,83,77,67,30.10,29.87,19,3,19,0.02
2013-11-16,61,57,56,52,49,46,81,75,69,30.16,30.07,23,6,23,0.02
2013-11-17,64,56,52,47,44,42,73,64,50,30.16,30.08,21,2,21,0.02
2013-11-18,61,54,49,48,44,42,79,69,56,30.13,30.07,18,2,18,0.02
2013-11-19,65,57,51,50,47,43,79,70,56,30.12,30.00,12,1,12,0.00
2013-11-20,68,62,58,63,57,50,88,83,76,30.00,29.84,17,1,17,0.18
2013-11-21,70,61,54,60,55,50,88,80,63,29.87,29.73,24,2,24,1.08
2013-11-22,68,59,53,58,52,47,89,79,58,29.79,29.68,14,1,14,0.02
2013-11-23,68,59,52,58,52,47,87,80,67,29.80,29.72,22,3,22,0.06
2013-11-24,62,58,54,56,53,50,88,86,79,29.78,29.65,24,1,24,1.21
2013-11-25,66,56,50,56,50,47,90,79,57,29.72,29.67,14,1,14,0.02
2013-11-26,66,56,51,53,49,46,86,79,59,29.76,29.67,13,1,13,0.10
2013-11-27,62,54,48,47,42,37,87,68,43,30.20,29.75,14,1,14,0.00
2013-11-28,58,50,44,44,39,35,82,67,47,30.30,30.20,14,1,14,0.00
2013-11-29,62,50,40,46,40,34,79,70,53,30.22,30.07,9,2,9,0.00
2013-11-30,55,52,48,49,45,42,83,78,72,30.12,30.03,12,3,12,0.14
2013-12-1,62,58,52,57,53,47,85,83,79,30.05,29.90,24,3,24,0.08
2013-12-2,61,59,56,56,54,51,90,85,81,30.08,29.93,19,4,19,1.06
2013-12-3,57,50,44,51,42,36,82,76,66,30.18,30.03,44,12,44,0.00
2013-12-4,50,46,42,39,37,32,79,71,61,30.14,30.03,25,2,25,0.02
2013-12-5,60,47,38,42,34,30,83,65,39,30.10,30.01,8,1,8,0.00
2013-12-6,60,48,38,43,36,30,76,64,45,30.06,29.85,12,1,12,0.00
2013-12-7,56,49,45,50,39,29,85,69,51,30.21,29.84,19,2,19,0.00
2013-12-8,54,46,40,32,28,25,63,50,34,30.39,30.20,14,1,14,0.00
2013-12-9,59,47,37,37,32,27,70,57,34,30.40,30.19,16,1,16,0.00
2013-12-10,58,49,42,42,38,33,81,66,44,30.36,30.10,28,4,28,0.08
2013-12-11,46,42,40,33,25,20,65,51,37,30.50,30.36,28,7,28,0.00
2013-12-12,51,44,37,36,30,23,68,58,40,30.43,30.24,17,2,17,0.00
2013-12-13,49,46,43,41,39,36,81,74,68,30.24,30.14,13,1,13,0.00
2013-12-14,59,48,39,46,39,35,84,73,50,30.34,30.18,7,1,7,0.00
2013-12-15,59,51,45,51,44,39,84,77,67,30.34,30.27,7,1,7,0.00
2013-12-16,55,51,49,47,44,39,86,77,63,30.37,30.27,23,4,23,0.00
2013-12-17,49,48,45,40,39,37,76,71,63,30.41,30.32,21,6,22,0.00
2013-12-18,50,47,43,40,38,35,76,72,67,30.32,30.21,17,3,17,0.00
2013-12-19,53,48,43,42,38,34,77,69,55,30.27,30.20,16,2,16,0.00
2013-12-20,58,47,40,42,37,34,80,69,47,30.44,30.26,8,2,8,0.00
2013-12-21,59,47,40,47,39,33,83,73,55,30.50,30.42,6,1,6,0.00
2013-12-22,62,48,39,42,37,31,75,65,43,30.48,30.35,13,2,13,0.00
2013-12-23,59,49,42,44,40,36,82,73,53,30.36,30.26,11,2,11,0.00
2013-12-24,53,50,47,46,44,42,81,78,74,30.29,30.16,23,3,23,0.00
2013-12-25,59,54,52,51,49,46,85,81,73,30.19,30.03,16,4,16,0.05
2013-12-26,63,56,51,55,51,47,87,82,71,30.05,29.84,16,1,16,0.04
2013-12-27,60,56,52,54,51,49,89,84,71,29.85,29.76,20,3,20,1.83
2013-12-28,58,54,51,51,49,44,90,84,77,29.91,29.78,20,3,20,0.04
2013-12-29,63,53,48,49,44,41,82,72,54,30.06,29.88,12,1,12,0.02
2013-12-30,64,52,44,47,42,38,82,71,53,30.11,30.03,9,0,9,0.00
2013-12-31,51,49,47,43,41,39,79,75,70,30.16,30.08,15,2,15,0.00
2014-1-1,49,48,47,44,42,39,84,78,74,30.15,30.05,14,2,14,0.37
2014-1-2,58,51,48,49,44,40,84,77,65,30.11,30.03,11,1,11,0.00